Weather History for Galax, VA

Change the Weather History Date:

Sunday, February 24, 2013

  Actual Average (KBLF) Record (KBLF)
Temperature  
Mean Temperature 44 °F 39 °F  
Max Temperature 51 °F 48 °F 71 °F (1961)
Min Temperature 37 °F 31 °F -1 °F (1967)
Degree Days  
Heating Degree Days 21 26  
Month to date heating degree days 673  
Since 1 July heating degree days 3393  
Cooling Degree Days 0 0  
Month to date cooling degree days 0  
Year to date cooling degree days 0  
Moisture  
Dew Point 27 °F    
Average Humidity 56    
Maximum Humidity 100    
Minimum Humidity 24    
Precipitation  
Precipitation 0.00 in 0.10 in 1.42 in (1972)
Month to date precipitation 2.34  
Year to date precipitation 5.24  
Snow  
Snow 0.00 in - - ()
Month to date snowfall  
Since 1 July snowfall  
Snow Depth -    
Sea Level Pressure  
Sea Level Pressure 29.94 in    
Wind  
Wind Speed 8 mph (WNW)    
Max Wind Speed 22 mph    
Max Gust Speed 28 mph    
Visibility 10 miles    
Events      
T = Trace of Precipitation, MM = Missing Value Source: NWS Daily Summary

Daily Weather History Graph

Daily Weather History Graph

Search for Another Location

Airport:

Trip Planner

Search our weather history database for the weather conditions in past years. The results will help you decide how hot, cold, wet, or windy it might be!

Date:

Astronomy

Feb. 24, 2013 Rise Set
Actual Time 7:00 AM EST 6:13 PM EST
Civil Twilight 6:34 AM EST 6:39 PM EST
Nautical Twilight 6:04 AM EST 7:09 PM EST
Astronomical Twilight 5:34 AM EST 7:39 PM EST
Moon 5:22 PM EST (2/24) 5:56 AM EST (2/24)
Length of Visible Light 12h 05m
Length of Day
11h 12m
Waxing Gibbous, 99% of the Moon is Illuminated
Feb 24
Waxing Gibbous
Feb 25
Full
Mar 4
Last Quarter
Mar 11
New
Mar 19
First Quarter

Hourly Weather History & Observations

Time (EST) Temp. Windchill Dew Point Humidity Pressure Visibility Wind Dir Wind Speed Gust Speed Precip Events Conditions
12:15 AM 46.4 °F 45.2 °F 44.6 °F 93% 29.84 in 10.0 mi West 3.5 mph - N/A   Clear
12:35 AM 46.4 °F 44.3 °F 44.6 °F 93% 29.83 in 10.0 mi West 4.6 mph - N/A   Clear
12:55 AM 46.4 °F 42.4 °F 42.8 °F 87% 29.84 in 10.0 mi WNW 8.1 mph - N/A   Scattered Clouds
1:15 AM 46.4 °F 41.5 °F 44.6 °F 93% 29.85 in 10.0 mi WNW 10.4 mph - N/A   Scattered Clouds
1:35 AM 46.4 °F 45.2 °F 44.6 °F 93% 29.85 in 10.0 mi West 3.5 mph - N/A   Clear
1:55 AM 46.4 °F 44.3 °F 44.6 °F 93% 29.85 in 10.0 mi West 4.6 mph - N/A   Clear
2:15 AM 46.4 °F - 42.8 °F 87% 29.83 in 10.0 mi Calm Calm - N/A   Clear
2:35 AM 44.6 °F 42.2 °F 42.8 °F 93% 29.83 in 10.0 mi West 4.6 mph - N/A   Clear
2:55 AM 42.8 °F 38.6 °F 42.8 °F 100% 29.85 in 7.0 mi WNW 6.9 mph - N/A   Scattered Clouds
3:15 AM 44.6 °F 39.7 °F 42.8 °F 93% 29.84 in 10.0 mi WNW 9.2 mph - N/A   Scattered Clouds
3:35 AM 46.4 °F 41.5 °F 41.0 °F 81% 29.84 in 10.0 mi NW 10.4 mph - N/A   Mostly Cloudy
3:55 AM 44.6 °F 38.8 °F 39.2 °F 81% 29.84 in 10.0 mi WNW 11.5 mph - N/A   Mostly Cloudy
4:15 AM 44.6 °F 38.8 °F 39.2 °F 81% 29.84 in 10.0 mi NW 11.5 mph - N/A   Scattered Clouds
4:35 AM 44.6 °F 39.2 °F 37.4 °F 76% 29.85 in 10.0 mi NW 10.4 mph - N/A   Clear
4:55 AM 42.8 °F 37.5 °F 37.4 °F 81% 29.86 in 10.0 mi WNW 9.2 mph - N/A   Clear
5:15 AM 42.8 °F 39.3 °F 37.4 °F 81% 29.86 in 10.0 mi WNW 5.8 mph - N/A   Clear
5:35 AM 42.8 °F 40.1 °F 37.4 °F 81% 29.86 in 10.0 mi WNW 4.6 mph - N/A   Clear
5:55 AM 41.0 °F 36.4 °F 35.6 °F 81% 29.88 in 10.0 mi West 6.9 mph - N/A   Clear
6:15 AM 41.0 °F 36.4 °F 35.6 °F 81% 29.88 in 10.0 mi WNW 6.9 mph - N/A   Clear
6:35 AM 39.2 °F 33.0 °F 33.8 °F 81% 29.90 in 10.0 mi WNW 9.2 mph - N/A   Clear
6:55 AM 39.2 °F 35.9 °F 33.8 °F 81% 29.91 in 10.0 mi WNW 4.6 mph - N/A   Clear
7:15 AM 39.2 °F 35.9 °F 33.8 °F 81% 29.92 in 10.0 mi WNW 4.6 mph - N/A   Clear
7:35 AM 37.4 °F 33.8 °F 33.8 °F 87% 29.93 in 10.0 mi West 4.6 mph - N/A   Clear
7:55 AM 39.2 °F 35.9 °F 32.0 °F 75% 29.94 in 10.0 mi West 4.6 mph - N/A   Clear
8:15 AM 39.2 °F 33.0 °F 30.2 °F 70% 29.95 in 10.0 mi West 9.2 mph - N/A   Clear
8:35 AM 39.2 °F 33.6 °F 28.4 °F 65% 29.95 in 10.0 mi WNW 8.1 mph 16.1 mph N/A   Clear
8:55 AM 39.2 °F 32.0 °F 28.4 °F 65% 29.94 in 10.0 mi NW 11.5 mph - N/A   Clear
9:15 AM 39.2 °F 30.8 °F 26.6 °F 61% 29.95 in 10.0 mi WNW 15.0 mph 20.7 mph N/A   Clear
9:35 AM 41.0 °F 35.2 °F 26.6 °F 57% 29.95 in 10.0 mi WNW 9.2 mph 19.6 mph N/A   Clear
9:55 AM 41.0 °F 33.5 °F 26.6 °F 57% 29.95 in 10.0 mi NW 13.8 mph 17.3 mph N/A   Clear
10:15 AM 42.8 °F 36.6 °F 26.6 °F 53% 29.96 in 10.0 mi WNW 11.5 mph 16.1 mph N/A   Clear
10:35 AM 42.8 °F 36.2 °F 26.6 °F 53% 29.96 in 10.0 mi West 12.7 mph 18.4 mph N/A   Clear
10:55 AM 44.6 °F 38.8 °F 26.6 °F 49% 29.95 in 10.0 mi WNW 11.5 mph 16.1 mph N/A   Clear
11:15 AM 44.6 °F 38.8 °F 26.6 °F 49% 29.96 in 10.0 mi WNW 11.5 mph 17.3 mph N/A   Clear
11:35 AM 44.6 °F 40.2 °F 24.8 °F 46% 29.96 in 10.0 mi WNW 8.1 mph 17.3 mph N/A   Clear
11:55 AM 46.4 °F 41.5 °F 24.8 °F 43% 29.95 in 10.0 mi NW 10.4 mph - N/A   Clear
12:15 PM 46.4 °F 40.7 °F 24.8 °F 43% 29.95 in 10.0 mi WNW 12.7 mph - N/A   Clear
12:35 PM 48.2 °F - 24.8 °F 40% 29.94 in 10.0 mi WNW 13.8 mph 19.6 mph N/A   Clear
12:55 PM 48.2 °F - 21.2 °F 34% 29.94 in 10.0 mi NW 12.7 mph 23.0 mph N/A   Clear
1:15 PM 48.2 °F - 23.0 °F 37% 29.94 in 10.0 mi WNW 13.8 mph 21.9 mph N/A   Clear
1:35 PM 50.0 °F - 21.2 °F 32% 29.94 in 10.0 mi West 16.1 mph 20.7 mph N/A   Clear
1:55 PM 51.8 °F - 21.2 °F 30% 29.94 in 10.0 mi West 17.3 mph 21.9 mph N/A   Clear
2:15 PM 51.8 °F - 17.6 °F 26% 29.94 in 10.0 mi West 18.4 mph 24.2 mph N/A   Clear
2:35 PM 50.0 °F - 17.6 °F 28% 29.94 in 10.0 mi NW 19.6 mph 27.6 mph N/A   Clear
2:55 PM 51.8 °F - 15.8 °F 24% 29.94 in 10.0 mi West 21.9 mph 27.6 mph N/A   Clear
3:15 PM 51.8 °F - 17.6 °F 26% 29.95 in 10.0 mi WNW 18.4 mph 24.2 mph N/A   Clear
3:35 PM 51.8 °F - 17.6 °F 26% 29.95 in 10.0 mi West 13.8 mph 24.2 mph N/A   Clear
3:55 PM 51.8 °F - 17.6 °F 26% 29.95 in 10.0 mi WNW 16.1 mph 23.0 mph N/A   Clear
4:15 PM 51.8 °F - 17.6 °F 26% 29.95 in 10.0 mi West 10.4 mph 25.3 mph N/A   Clear
4:35 PM 50.0 °F - 15.8 °F 26% 29.95 in 10.0 mi WNW 11.5 mph 21.9 mph N/A   Clear
4:55 PM 50.0 °F - 17.6 °F 28% 29.97 in 10.0 mi WNW 16.1 mph 19.6 mph N/A   Clear
5:15 PM 50.0 °F - 17.6 °F 28% 29.97 in 10.0 mi WNW 13.8 mph 21.9 mph N/A   Clear
5:35 PM 48.2 °F - 15.8 °F 27% 29.97 in 10.0 mi WNW 10.4 mph 20.7 mph N/A   Clear
5:55 PM 48.2 °F - 15.8 °F 27% 29.97 in 10.0 mi West 10.4 mph 20.7 mph N/A   Clear
6:15 PM 46.4 °F 42.4 °F 15.8 °F 29% 29.98 in 10.0 mi WNW 8.1 mph - N/A   Clear
6:35 PM 46.4 °F 41.5 °F 15.8 °F 29% 29.99 in 10.0 mi WNW 10.4 mph - N/A   Clear
6:55 PM 44.6 °F 38.4 °F 15.8 °F 31% 30.00 in 10.0 mi WNW 12.7 mph - N/A   Clear
7:15 PM 44.6 °F 40.2 °F 17.6 °F 34% 30.01 in 10.0 mi WNW 8.1 mph - N/A   Clear
7:35 PM 44.6 °F 39.7 °F 17.6 °F 34% 30.01 in 10.0 mi WNW 9.2 mph - N/A   Clear
7:55 PM 42.8 °F 38.0 °F 19.4 °F 39% 30.03 in 10.0 mi WNW 8.1 mph - N/A   Clear
8:15 PM 42.8 °F 38.6 °F 19.4 °F 39% 30.03 in 10.0 mi WNW 6.9 mph - N/A   Clear
8:35 PM 42.8 °F 37.5 °F 19.4 °F 39% 30.03 in 10.0 mi WNW 9.2 mph - N/A   Clear
8:55 PM 41.0 °F 35.2 °F 21.2 °F 45% 30.03 in 10.0 mi WNW 9.2 mph - N/A   Clear
9:15 PM 41.0 °F 38.0 °F 21.2 °F 45% 30.03 in 10.0 mi WNW 4.6 mph - N/A   Clear
9:35 PM 41.0 °F 35.8 °F 21.2 °F 45% 30.03 in 10.0 mi NW 8.1 mph - N/A   Clear
9:55 PM 39.2 °F 35.9 °F 21.2 °F 49% 30.04 in 10.0 mi WNW 4.6 mph - N/A   Clear
10:15 PM 39.2 °F 33.0 °F 21.2 °F 49% 30.04 in 10.0 mi NW 9.2 mph - N/A   Clear
10:35 PM 39.2 °F 33.0 °F 21.2 °F 49% 30.03 in 10.0 mi NW 9.2 mph - N/A   Clear
10:55 PM 39.2 °F 35.0 °F 21.2 °F 49% 30.03 in 10.0 mi NW 5.8 mph - N/A   Clear
11:15 PM 39.2 °F 35.0 °F 19.4 °F 45% 30.03 in 10.0 mi NW 5.8 mph - N/A   Clear
11:35 PM 37.4 °F 32.8 °F 21.2 °F 52% 30.02 in 10.0 mi NNW 5.8 mph - N/A   Clear
11:55 PM 37.4 °F 31.4 °F 21.2 °F 52% 30.02 in 10.0 mi NW 8.1 mph - N/A   Clear